Location: Unspecified
(43.4680°N, 87.1740°E)
Time: 19:59:44
(UTC+00:00)

Cosmos 1818 - Pass Details

Date: 17 April 2021
Orbit: 772 x 802 km, 65.0° (Epoch: 12 May)

Event Time Altitude Azimuth Distance (km) Brightness Sun altitude
Rises 14:33:20 0° 204° (SSW) 3,264 6.7 -16.7°
Reaches altitude 10° 14:35:45 10° 201° (SSW) 2,344 5.9 -17.1°
Maximum altitude 14:41:05 67° 120° (ESE) 858 3.5 -17.9°
Drops below altitude 10° 14:46:31 10° 39° (NE) 2,377 6.0 -18.7°
Sets 14:48:58 0° 37° (NE) 3,313 6.8 -19.0°
